Meteo Giornale » Osservazioni meteo Stati Uniti (USA) » Jacksonville
ore: 16:53 - Osservazioni Meteo Jacksonville
Lat. 30° 14' N Lon. 81° 40' W Alt. 6 metri s.l.m.
31 °C
Nuvoloso
Temp. 24 Ore
26 °C
31 °C
Est/Nord-Est
14.8 Km/h
Dew point 23 °C
Umidità 62 %
Visibilità 10 Km
Il sole sorge alle ore 07:03
Il sole tramonta alle ore 19:50
| Data e Ora | Cielo e Fenomeni | T °C | DP °C | Um. % | Pres. hPa | Vis. km | Vento km/h | |
|---|---|---|---|---|---|---|---|---|
| Oggi h: 16:53 | Nuvoloso | 31 | 23 | 62 | 1017 | 10 | E/NE 14.8 | |
| Oggi h: 15:53 | Nuvoloso | 31 | 23 | 62 | 1017 | 10 | E 14.8 | |
| Oggi h: 14:53 | Nuvoloso | 31 | 23 | 62 | 1017 | 10 | E/NE 14.8 | |
| Oggi h: 13:53 | Nuvoloso | 31 | 24 | 66 | 1018 | 10 | E/NE 16.7 | |
| Oggi h: 12:53 | Molto Nuvoloso | 30 | 24 | 70 | 1019 | 10 | E 16.7 | |
| Oggi h: 11:53 | Molto Nuvoloso | 31 | 23 | 62 | 1019 | 10 | N/NE 11.1 | |
| Oggi h: 10:53 | Molto Nuvoloso | 30 | 24 | 70 | 1019 | 10 | NE 7.4 | |
| Oggi h: 09:53 | Nuvoloso | 29 | 23 | 70 | 1018 | 10 | N 7.4 | |
| Oggi h: 08:53 | Nuvoloso | 28 | 25 | 83 | 1018 | 10 | N 5.5 | |
| Oggi h: 07:53 | Nuvoloso | 27 | 26 | 94 | 1018 | 10 | NE 9.3 | |
| Oggi h: 06:53 | Nuvoloso | 26 | 25 | 94 | 1017 | 10 | E/NE 9.3 | |
| Oggi h: 05:53 | Nuvoloso | 26 | 25 | 94 | 1017 | 10 | E/NE 7.4 | |
| Oggi h: 05:02 | Nuvoloso | 26 | 25 | 94 | 1017 | 10 | E/NE 9.3 | |
| Oggi h: 04:53 | Sereno | 26 | 25 | 94 | 1017 | 10 | E/NE 7.4 | |
| Oggi h: 03:53 | Sereno | 26 | 25 | 94 | 1017 | 10 | N 5.5 | |
| Oggi h: 02:53 | Poco Nuvoloso | 26 | 24 | 88 | 1017 | 10 | E/NE 7.4 | |
| Oggi h: 01:53 | Sereno | 26 | 24 | 88 | 1018 | 10 | NE 11.1 | |
| Oggi h: 00:53 | Poco Nuvoloso | 26 | 24 | 88 | 1018 | 10 | NE 9.3 | |
| Ieri h: 23:53 | Sereno | 26 | 24 | 88 | 1018 | 10 | E/NE 11.1 | |
| Ieri h: 22:53 | Molto Nuvoloso | 27 | 24 | 83 | 1018 | 10 | E/NE 11.1 | |
| Ieri h: 21:53 | Molto Nuvoloso | 27 | 24 | 83 | 1018 | 10 | E/NE 9.3 | |
| Ieri h: 20:53 | Molto Nuvoloso | 27 | 23 | 78 | 1018 | 10 | E 14.8 | |
| Ieri h: 19:53 | Molto Nuvoloso | 27 | 23 | 78 | 1018 | 10 | E 9.3 | |
| Ieri h: 18:53 | Molto Nuvoloso | 28 | 24 | 78 | 1017 | 10 | E 14.8 | |



